ARIANE 5 R/B, 26721

Orbit data source: Space-Track

ARIANE 5 R/B, 26721 is space debris in HEO originally from a launch on Thu, 08 Mar 2001 UTC launched from the French Guiana (FRGUI). Debris objects in space refer to the collection of defunct objects orbiting the Earth. Examples of debris include non-operational satellites, rocket bodies, and fragments generated from explosions, collisions, or faulty payload assembly.

Loading next visibility...
Identifier
26721, 2001-011C
Orbit
HEO
Country
Flag of FRFR
Related business
Manufacturer
Astrium
Mission
Spacecraft
Bus & Motor
EPS, AESTUS
Mass
1,190 kg wet, 1,190 kg dry
Launch date (UTC)
2001-03-08 (25 years ago)
Launch vehicle
Unknown
Launch site
French Guiana (FRGUI)
Object type
Payload
Rocket body
Debris
Shape & HBR
Cone + Cyl, 2.7 m
Radar Cross Section
25.858 m², Large (>1 m²)

Expand to show TLE details & history
Last TLE update: 18 hours ago

TLE from 18 hours ago
0 ARIANE 5 R/B
1 26721U 01011C   25257.58834492 -.00000072  00000-0  29123-2 0  9994
2 26721   1.9160  12.5525 7049303  20.4419 208.6098  2.24564274201229
Epoch: 2025-09-14T14:07Z
TLE epoch observation values (Epoch: 2025-09-14T14:07:13.001Z)
Latitude
-0.87782°
Longitude
14.40386°
Altitude
34,859.558 km
Speed
1.775 km/s
True Right ascension
14h 40m 03s
True Declination
0° 52' 37"
Sunlit
Object was in daylight at epoch
Visualization orbit readout
Latitude
Unknown
Longitude
Unknown
Altitude
Unknown
Speed
Unknown
Apparent Right ascension
Unknown
Apparent Declination
Unknown
Sunlit
N/A
Visualization observer readout
Local Sidereal Time
01:02:41
Azimuth
Unknown
Elevation
Unknown
Doppler factor
Unknown
Orbital elements
Apogee altitude
35,627.073 km
Perigee altitude
891.641 km
Semi-major axis
24,637.494 km
Eccentricity
0.70493
Inclination
1.916°
RAAN
12.5525°
Arg. of periapsis
20.4419°
True anomaly
187.0651°
Mean anomaly
208.6098°
Eccentric anomaly
196.88117°
Mean motion
0.56124 °/min
Orbital period
641.44 mins
BSTAR
0.0029123
Loading maneuver chart data...
Computing Atmospheric mass density...
Loading historical data...
Loading historical data...
Loading historical data...
Loading historical data...
Loading historical data...
Loading historical data...
Loading historical data...
Other satellites on launch #11 in the year 2001 (2001-03-08 UTC)

Documentation

Showing up to 5 results
|